"Time","Temp","Dewpoint","Humidity","Pressure","Direction","Speed","Gust","Precip","PrecipRate"
"00:04:57","72.4","69","89","30.11","184","0","0","0.00","0.00"
"00:09:56","72.3","68.9","89","30.11","184","0","0","0.00","0.00"
"00:14:59","72.1","68.7","89.1","30.11","184","0","0","0.00","0.00"
"00:19:57","72","68.8","89.6","30.11","184","0","0","0.00","0.00"
"00:24:59","71.9","68.8","90","30.11","184","0","0","0.00","0.00"
"00:29:57","71.7","68.6","90","30.11","184","0","0","0.00","0.00"
"00:34:59","71.6","68.5","90","30.11","184","0","0","0.00","0.00"
"00:39:59","71.5","68.4","90","30.11","184","0","0","0.00","0.00"
"00:44:57","71.4","68.5","90.8","30.12","184","0","0","0.00","0.00"
"00:49:59","71.3","68.5","91","30.12","184","0","0","0.00","0.00"
"00:54:57","71.1","68.3","91","30.12","184","0","0","0.00","0.00"
"00:59:59","71","68.2","91","30.12","184","0","0","0.00","0.00"
"01:04:57","70.9","68.1","91","30.12","184","0","0","0.00","0.00"
"01:09:59","70.8","68.2","91.5","30.12","184","0","0","0.00","0.00"
"01:14:59","70.7","68.2","92","30.12","184","0","0","0.00","0.00"
"01:19:56","70.5","68.1","92","30.12","184","0","0","0.00","0.00"
"01:24:58","70.4","68","92","30.12","184","0","0","0.00","0.00"
"01:29:57","70.4","68","92","30.12","184","0","0","0.00","0.00"
"01:34:59","70.3","68","92.5","30.12","184","0","0","0.00","0.00"
"01:39:58","70.1","67.8","92.3","30.12","184","0","0","0.00","0.00"
"01:44:57","70","67.9","93","30.12","184","0","0","0.00","0.00"
"01:49:59","69.8","67.7","93","30.12","184","0","0","0.00","0.00"
"01:54:57","69.7","67.6","93","30.12","184","0","0","0.00","0.00"
"01:59:59","69.6","67.5","93","30.12","184","0","0","0.00","0.00"
"02:04:57","69.6","67.7","93.7","30.12","184","0","0","0.00","0.00"
"02:09:59","69.6","67.8","94","30.12","184","0","0","0.00","0.00"
"02:14:59","69.6","67.8","94","30.12","184","0","0","0.00","0.00"
"02:19:57","69.6","67.8","94","30.12","184","0","0","0.00","0.00"
"02:24:58","69.5","67.7","94","30.12","184","0","0","0.00","0.00"
"02:29:57","69.4","67.6","94","30.12","184","0","0","0.00","0.00"
"02:34:59","69.3","67.5","94","30.12","184","0","0","0.00","0.00"
"02:39:58","69.3","67.5","94","30.12","184","0","0","0.00","0.00"
"02:44:57","69.3","67.5","94","30.12","184","0","0","0.00","0.00"
"02:49:59","69.3","67.5","94","30.12","184","0","0","0.00","0.00"
"02:54:57","69.3","67.5","94","30.12","184","0","0","0.00","0.00"
"02:59:59","69.4","67.6","94","30.12","184","0","0","0.00","0.00"
"03:04:57","69.4","67.7","94.4","30.12","184","0.4","2.3","0.00","0.00"
"03:09:59","69.5","67.8","94.3","30.12","184","0.1","1.2","0.00","0.00"
"03:14:59","69.6","67.8","94","30.12","184","0","0","0.00","0.00"
"03:19:57","69.6","67.8","94","30.12","184","0","0","0.00","0.00"
"03:24:58","69.6","67.8","94","30.12","184","0","1","0.00","0.00"
"03:29:26","69.6","67.8","94","30.12","184","0.4","1.2","0.00","0.00"
"03:34:56","69.6","67.8","94","30.12","184","0","1.2","0.00","0.00"
"03:39:59","69.6","67.8","94","30.12","184","0","0","0.00","0.00"
"03:44:58","69.6","67.8","94","30.12","184","0","0","0.00","0.00"
"03:49:59","69.6","67.8","94","30.12","184","0","0","0.00","0.00"
"03:54:58","69.5","67.7","94","30.12","184","0","0","0.00","0.00"
"03:59:56","69.5","67.7","94","30.12","184","0","0","0.00","0.00"
"04:04:57","69.3","67.5","94","30.12","184","0","0","0.00","0.00"
"04:09:59","69.3","67.5","94","30.12","184","0","1.2","0.00","0.00"
"04:14:59","69.3","67.5","94","30.12","184","0","0","0.00","0.00"
"04:19:57","69.3","67.5","94","30.12","184","0","0","0.00","0.00"
"04:24:59","69.2","67.5","94.2","30.12","184","0","0","0.00","0.00"
"04:29:57","69.2","67.7","95","30.12","184","0","0","0.00","0.00"
"04:34:59","69.1","67.3","94.2","30.12","184","0","0","0.00","0.00"
"04:39:58","69","67.2","94.2","30.12","184","0","0","0.00","0.00"
"04:44:56","68.8","67.3","94.9","30.12","184","0","0","0.00","0.00"
"04:49:57","68.7","66.9","94.1","30.12","184","0","0","0.00","0.00"
"04:54:59","68.5","66.7","94","30.12","184","0","0","0.00","0.00"
"04:59:57","68.4","66.7","94.3","30.12","184","0","0","0.00","0.00"
"05:04:59","68.3","66.8","95","30.12","184","0","0","0.00","0.00"
"05:09:57","68.1","66.6","95","30.12","184","0","0","0.00","0.00"
"05:14:56","68","66.5","95","30.12","184","0","0","0.00","0.00"
"05:19:58","67.9","66.4","95","30.12","184","0","0","0.00","0.00"
"05:24:56","67.8","66.3","95","30.12","184","0","0","0.00","0.00"
"05:29:58","67.7","66.2","95","30.12","184","0","0","0.00","0.00"
"05:34:56","67.5","66","95","30.12","184","0","0","0.00","0.00"
"05:39:56","67.4","65.9","95","30.12","184","0","0","0.00","0.00"
"05:44:58","67.2","65.7","95","30.12","184","0","0","0.00","0.00"
"05:49:56","67","65.5","95","30.12","184","0","0","0.00","0.00"
"05:54:58","66.9","65.4","95","30.12","184","0","0","0.00","0.00"
"05:59:56","66.8","65.3","95","30.12","184","0","0","0.00","0.00"
"06:04:58","66.6","65.1","95","30.12","184","0","0","0.00","0.00"
"06:09:56","66.6","65.4","96","30.12","184","0","0","0.00","0.00"
"06:14:56","66.6","65.4","96","30.14","184","0","0","0.00","0.00"
"06:19:58","66.4","65","95.4","30.14","184","0","0","0.00","0.00"
"06:24:56","66.3","65.1","96","30.14","184","0","0","0.00","0.00"
"06:29:59","66.2","65","96","30.14","184","0","0","0.00","0.00"
"06:34:57","66.1","64.9","96","30.14","184","0","0","0.00","0.00"
"06:39:56","65.9","64.7","96","30.14","184","0","0","0.00","0.00"
"06:44:59","65.8","64.6","96","30.15","184","0","0","0.00","0.00"
"06:49:57","65.8","64.6","96","30.15","184","0","0","0.00","0.00"
"06:54:59","65.9","64.7","96.2","30.15","184","0","0","0.00","0.00"
"06:59:58","65.9","64.9","96.5","30.15","184","0","0","0.00","0.00"
"07:04:59","65.9","64.7","96.2","30.15","184","0","0","0.00","0.00"
"07:09:57","65.9","64.7","96","30.15","184","0","0","0.00","0.00"
"07:14:56","65.9","64.8","96.5","30.15","184","0","0","0.00","0.00"
"07:19:57","66","65.1","97","30.15","184","0","0","0.00","0.00"
"07:24:59","66.1","65.2","97","30.15","184","0","0","0.00","0.00"
"07:29:56","66.2","65.3","97","30.16","184","0","0","0.00","0.00"
"07:34:58","66.4","65.5","97","30.16","184","0","0","0.00","0.00"
"07:39:57","66.7","65.8","97","30.16","184","0","0","0.00","0.00"
"07:44:59","66.9","66","97","30.16","216","0","0","0.00","0.00"
"07:49:56","67.1","66.3","97.3","30.16","216","0","0","0.00","0.00"
"07:54:57","67.5","66.9","98","30.16","216","0","0","0.00","0.00"
"07:59:59","68","67.4","97.7","30.16","216","0","0","0.00","0.00"
"08:04:57","68.4","67.5","97","30.16","216","0","0","0.00","0.00"
"08:09:59","68.7","67.8","97","30.16","216","0","0","0.00","0.00"
"08:14:58","69.1","68.2","97","30.16","216","0","0","0.00","0.00"
"08:19:59","69.5","68.5","96.8","30.16","216","0.7","2.3","0.00","0.00"
"08:24:56","69.8","68.8","96.5","30.16","216","0.9","2.3","0.00","0.00"
"08:29:57","70.3","69.1","96","30.17","216","0.9","3.5","0.00","0.00"
"08:34:59","70.7","69.3","95.2","30.17","216","1.2","3.5","0.00","0.00"
"08:39:58","71.2","69.4","94","30.17","212","0.6","3.5","0.00","0.00"
"08:44:59","71.8","69.8","93.5","30.17","179","0.2","2.3","0.00","0.00"
"08:49:57","72.3","69.7","91.8","30.17","178","1.1","3.5","0.00","0.00"
"08:54:58","72.8","70.1","91.3","30.17","178","0.6","3.5","0.00","0.00"
"08:59:56","73.4","70.1","89.4","30.17","178","0.8","3.5","0.00","0.00"
"09:04:57","74.1","70.2","87.6","30.17","178","0.9","3.5","0.00","0.00"
"09:09:58","74.7","70.2","86","30.17","179","1.5","3.5","0.00","0.00"
"09:14:57","75.4","70.8","85.6","30.17","179","0.1","2.3","0.00","0.00"
"09:19:58","76.2","70.9","83.7","30.17","179","0.1","2.3","0.00","0.00"
"09:24:56","76.9","71.1","82.4","30.17","178","0.4","2.3","0.00","0.00"
"09:29:58","77.4","71","80.7","30.17","178","1","3.5","0.00","0.00"
"09:34:59","77.6","71","80.3","30.17","179","0.4","2.3","0.00","0.00"
"09:39:58","77.7","70.8","79.3","30.17","178","0","0","0.00","0.00"
"09:44:56","77.7","70.4","78.2","30.17","238","0.9","3.5","0.00","0.00"
"09:49:57","77.9","70.4","77.7","30.17","191","1.4","4","0.00","0.00"
"09:54:59","78.2","70.6","77.5","30.17","181","1.4","3.5","0.00","0.00"
"09:59:57","78.7","70.5","76","30.17","156","1.3","3.5","0.00","0.00"
"10:04:59","79.3","70.5","74.5","30.17","152","1.4","5","0.00","0.00"
"10:09:58","79.8","69.7","71.3","30.17","143","1.6","6","0.00","0.00"
"10:14:59","80.2","69.8","70.7","30.17","140","0.7","4","0.00","0.00"
"10:19:57","80.3","70","71.2","30.17","140","0.9","3.5","0.00","0.00"
"10:24:59","80.5","71","72.8","30.17","161","0.8","2.3","0.00","0.00"
"10:29:58","80.9","71.1","72.4","30.17","246","0.3","2.3","0.00","0.00"
"10:34:58","81","70.7","71.2","30.17","240","0.3","3","0.00","0.00"
"10:39:58","81.1","70.9","71.3","30.17","193","2.2","5","0.00","0.00"
"10:44:56","81.3","70.8","70.5","30.17","150","1.7","5","0.00","0.00"
"10:47:34","81.4","70.2","69.1","30.17","132","0.5","1.2","0.00","0.00"
"11:04:58","81.9","70.5","68.5","30.17","155","2.5","6","0.00","0.00"
"11:09:56","82.1","71.1","69.4","30.17","143","1.7","5.8","0.00","0.00"
"11:14:56","82.3","70.2","66.8","30.17","116","1.4","4","0.00","0.00"
"11:19:59","82.4","70.4","67.3","30.17","127","1.7","4","0.00","0.00"
"11:24:56","82.4","70.4","67.2","30.17","153","1.7","5","0.00","0.00"
"11:29:56","82.7","70.5","66.6","30.17","131","2.6","9.2","0.00","0.00"
"11:34:56","83.1","70.8","66.7","30.17","161","2.6","6","0.00","0.00"
"11:39:37","83.4","70.7","65.6","30.17","153","3.1","7","0.00","0.00"
"11:44:57","83.6","70","63.8","30.17","142","2.6","6","0.00","0.00"
"11:49:56","83.5","70.1","64.1","30.16","126","1.7","6","0.00","0.00"
"11:54:58","83.6","69.8","63.2","30.16","187","3.1","7","0.00","0.00"
"11:59:56","83.9","68.7","60.5","30.16","174","3.6","7","0.00","0.00"
"12:04:57","84.1","69.7","62","30.16","175","2.8","5","0.00","0.00"
"12:09:58","84.4","69.8","61.6","30.16","201","2.9","6","0.00","0.00"
"12:14:58","84.8","69.8","61","30.16","201","3","6","0.00","0.00"
"12:19:56","84.9","69.4","59.9","30.16","187","3.2","7","0.00","0.00"
"12:24:57","84.9","69.5","60","30.16","187","3.3","10","0.00","0.00"
"12:29:59","85.1","69.9","60.4","30.16","185","3.8","7","0.00","0.00"
"12:34:57","85.1","68.5","57.6","30.15","169","3.2","7","0.00","0.00"
"12:39:56","85.1","68.7","58","30.15","164","2.1","5","0.00","0.00"
"12:44:58","85.2","68.7","57.8","30.15","124","3.2","9.2","0.00","0.00"
"12:49:56","85.3","68.6","57.5","30.15","157","2.3","6","0.00","0.00"
"12:54:58","85.5","69.1","58.1","30.15","200","3","6","0.00","0.00"
"12:59:55","85.2","69.2","59","30.15","180","2.6","6","0.00","0.00"
"13:04:56","85.5","69.9","59.9","30.15","180","3.5","9.2","0.00","0.00"
"13:09:56","85.7","67.9","55.4","30.15","178","3.8","10.4","0.00","0.00"
"13:14:56","85.7","68.1","55.7","30.15","193","3.7","9.2","0.00","0.00"
"13:19:58","85.8","68.9","57.1","30.14","184","4.7","10.4","0.00","0.00"
"13:24:56","85.8","68.7","56.9","30.14","188","4.8","10.4","0.00","0.00"
"13:29:58","85.9","69.2","57.6","30.14","171","2.4","6.9","0.00","0.00"
"13:34:56","86.2","68.7","56.1","30.14","206","3.7","10.4","0.00","0.00"
"13:39:56","86.4","69.3","57","30.14","189","2.9","10.4","0.00","0.00"
"13:44:58","86.1","68.6","56.1","30.14","176","3.6","7","0.00","0.00"
"13:49:59","86.3","69.6","57.7","30.14","168","3.7","10.4","0.00","0.00"
"13:54:57","86.4","68.7","55.8","30.14","125","2.2","7","0.00","0.00"
"13:59:59","86","68","55.1","30.14","124","1.7","6.9","0.00","0.00"
"14:04:59","86.2","68.4","55.5","30.14","173","3.4","10.4","0.00","0.00"
"14:09:56","86.4","67.4","53.3","30.14","194","2.8","5","0.00","0.00"
"14:14:59","86.2","68.1","54.9","30.14","177","2.2","6","0.00","0.00"
"14:19:57","86.4","68.5","55.3","30.13","188","3","7","0.00","0.00"
"14:24:59","87","69","55.4","30.13","201","3.2","7","0.00","0.00"
"14:29:56","87.4","69.1","54.7","30.13","195","1.7","6","0.00","0.00"
"14:34:58","87.7","68.9","53.8","30.13","184","3.6","9","0.00","0.00"
"14:39:58","87.8","68.7","53.3","30.13","180","1.5","9","0.00","0.00"
"14:44:56","87.8","68.7","53.3","30.13","139","3","9.2","0.00","0.00"
"14:49:58","87.3","68.8","54.3","30.13","149","2","9","0.00","0.00"
"14:54:56","87.3","68.6","54","30.13","200","4.7","9.2","0.00","0.00"
"14:59:57","87.3","68.3","53.5","30.13","198","4.5","11.5","0.00","0.00"
"15:04:58","87.4","68.4","53.5","30.12","177","3.2","9.2","0.00","0.00"
"15:09:58","87.5","68.4","53.3","30.12","167","3.8","10.4","0.00","0.00"
"15:14:58","87.7","68.3","52.9","30.12","173","3.3","8.1","0.00","0.00"
"15:19:56","88","69","53.4","30.12","198","2.5","5","0.00","0.00"
"15:24:57","88.3","68.4","52.1","30.12","220","1.9","6","0.00","0.00"
"15:29:59","88.4","67.1","49.6","30.12","190","4","10.4","0.00","0.00"
"15:34:57","88.4","67","49.4","30.12","177","3.9","10.4","0.00","0.00"
"15:39:57","88.6","67.3","49.6","30.12","185","4","10.4","0.00","0.00"
"15:44:59","88.5","66.1","47.6","30.12","164","2.8","6","0.00","0.00"
"15:49:57","88.6","66.9","48.8","30.12","190","1.6","4","0.00","0.00"
"15:54:59","88.7","66.8","48.4","30.12","197","1.7","4","0.00","0.00"
"15:59:57","88.8","66.4","47.6","30.12","131","1.5","5","0.00","0.00"
"16:04:58","88.6","65.8","47","30.12","133","0.9","5","0.00","0.00"
"16:09:59","88.5","65.5","46.8","30.12","152","3.2","8.1","0.00","0.00"
"16:14:58","88.5","65.6","46.9","30.12","168","1.6","5","0.00","0.00"
"16:19:56","88.4","66.6","48.7","30.11","175","3","5","0.00","0.00"
"16:24:59","88.5","67.3","49.7","30.11","186","3.3","7","0.00","0.00"
"16:29:57","88.5","66.8","48.8","30.11","163","2.6","9.2","0.00","0.00"
"16:34:59","88.1","67.1","50.1","30.11","162","2.5","5","0.00","0.00"
"16:39:38","88","68.3","52.2","30.11","184","2.8","7","0.00","0.00"
"16:44:57","88.2","68.7","52.7","30.11","182","1.6","4.6","0.00","0.00"
"16:49:58","87.8","68.1","52.2","30.10","147","2.6","7","0.00","0.00"
"16:54:56","87.2","68","53","30.10","120","2.1","6.9","0.00","0.00"
"16:59:58","87.1","69.5","56","30.10","126","1.9","6","0.00","0.00"
"17:04:58","87","69.1","55.6","30.10","126","2.4","6","0.00","0.00"
"17:09:59","86.5","69.2","56.4","30.10","166","2.6","10","0.00","0.00"
"17:14:59","86","69.4","58","30.10","131","3.2","10.4","0.00","0.00"
"17:19:56","85.3","69.5","59.4","30.10","146","2.1","5.8","0.00","0.00"
"17:24:58","84.9","69.8","60.7","30.10","153","2.1","6","0.00","0.00"
"17:29:56","84.9","70.8","62.7","30.10","130","1.2","5","0.00","0.00"
"17:34:58","85.2","70.4","61.4","30.10","156","2.3","6","0.00","0.00"
"17:39:58","85.6","70.7","61.3","30.10","117","2.7","9","0.00","0.00"
"17:44:56","85.4","70.5","61.1","30.10","129","3.4","10.4","0.00","0.00"
"17:49:58","85","70.8","62.6","30.10","159","2.8","8","0.00","0.00"
"17:54:59","84.9","71.1","63.4","30.10","153","2.3","8.1","0.00","0.00"
"17:59:58","84.6","70.7","63","30.10","137","2.8","8.1","0.00","0.00"
"18:04:58","84.9","71.1","63.5","30.09","132","2.4","5","0.00","0.00"
"18:09:59","84.6","70.5","62.8","30.09","126","3.7","10.4","0.00","0.00"
"18:14:58","84.4","70.8","63.8","30.10","115","3.4","9.2","0.00","0.00"
"18:19:56","84.5","71.1","64.4","30.10","149","2.9","7","0.00","0.00"
"18:24:58","84.4","70.9","64.1","30.10","122","2.9","7","0.00","0.00"
"18:29:55","84.1","70.7","64.2","30.10","151","3.3","7","0.00","0.00"
"18:34:58","84.1","70.7","64.1","30.10","180","3.2","9.2","0.00","0.00"
"18:39:57","84.1","70.3","63.5","30.10","150","2.9","6","0.00","0.00"
"18:44:59","84.1","70.5","63.7","30.10","158","2.8","6","0.00","0.00"
"18:49:57","84.1","70.5","63.9","30.10","159","2.6","5","0.00","0.00"
"18:54:59","84","70.2","63.5","30.10","176","3.7","10.4","0.00","0.00"
"18:59:57","83.5","70.3","64.6","30.10","187","3.8","10.4","0.00","0.00"
"19:04:58","83.1","70.3","65.6","30.10","201","2.1","6","0.00","0.00"
"19:09:58","82.8","70.3","66","30.10","168","3.6","11.5","0.00","0.00"
"19:14:59","82.5","70.5","67","30.10","176","3.2","9.2","0.00","0.00"
"19:19:57","82.3","70.4","67.3","30.09","179","1.8","5","0.00","0.00"
"19:24:58","82.1","70.1","67","30.09","160","3","6","0.00","0.00"
"19:29:56","82","69.5","66.1","30.10","177","3","9.2","0.00","0.00"
"19:34:59","81.8","69.3","66","30.10","167","2.7","7","0.00","0.00"
"19:39:59","81.6","69.6","66.9","30.10","168","1.9","5","0.00","0.00"
"19:44:58","81.3","69.3","67","30.10","152","2.3","5","0.00","0.00"
"19:49:56","81.1","69.5","68","30.10","158","2.9","7","0.00","0.00"
"19:54:59","80.9","69.5","68.5","30.10","163","3.2","6","0.00","0.00"
"19:59:57","80.7","69.6","69","30.11","167","1.5","4","0.00","0.00"
"20:04:58","80.5","69.5","69.2","30.11","160","2","5","0.00","0.00"
"20:09:58","80.3","69.6","69.8","30.11","166","2.7","5","0.00","0.00"
"20:14:58","80.2","69.5","70","30.11","156","2.5","5","0.00","0.00"
"20:19:57","80.1","69.3","70","30.10","152","2.4","5","0.00","0.00"
"20:24:31","79.8","69.5","70.8","30.10","136","2.1","4.6","0.00","0.00"
"20:29:57","79.6","69.4","71","30.10","136","1.7","3.5","0.00","0.00"
"20:34:56","79.4","69.5","71.6","30.10","131","1.6","4","0.00","0.00"
"20:39:56","79.2","69.4","72","30.10","132","1","4","0.00","0.00"
"20:44:59","79.1","69.3","72","30.10","134","1.7","4","0.00","0.00"
"20:49:58","78.9","69.2","72.2","30.10","135","1.1","3.5","0.00","0.00"
"20:54:56","78.9","69.5","73","30.10","135","0.6","2.3","0.00","0.00"
"20:59:59","78.8","69.4","73","30.10","135","0.7","3.5","0.00","0.00"
"21:04:58","78.7","69.3","73","30.10","136","0.1","2.3","0.00","0.00"
"21:09:57","78.6","69.5","73.8","30.10","136","0.4","2.3","0.00","0.00"
"21:14:56","78.4","69.4","74","30.10","136","0.1","1.2","0.00","0.00"
"21:19:57","78.1","69.3","74.4","30.10","136","0.2","1.2","0.00","0.00"
"21:24:58","77.8","69.2","75","30.10","136","0","1.2","0.00","0.00"
"21:29:59","77.5","69.2","75.7","30.10","136","0.3","1.2","0.00","0.00"
"21:34:59","77.3","69.1","76.2","30.10","136","0.4","2.3","0.00","0.00"
"21:39:58","77","69.2","77","30.10","136","0","0","0.00","0.00"
"21:44:56","76.7","69.2","77.8","30.11","136","0","0","0.00","0.00"
"21:49:56","76.4","69.2","78.6","30.11","136","0","0","0.00","0.00"
"21:54:58","76.1","69.1","79","30.11","136","0","0","0.00","0.00"
"21:59:58","75.7","69.1","80","30.11","136","0","0","0.00","0.00"
"22:04:57","75.3","69.1","81","30.11","136","0","0","0.00","0.00"
"22:09:56","75","68.9","81.3","30.11","136","0","0","0.00","0.00"
"22:14:56","74.9","69","82","30.11","136","0","0","0.00","0.00"
"22:19:56","74.7","69","82.4","30.11","136","0","0","0.00","0.00"
"22:24:57","74.5","69","83","30.11","136","0","0","0.00","0.00"
"22:29:58","74.3","68.8","83","30.12","136","0","0","0.00","0.00"
"22:34:59","74.1","69","84","30.12","136","0","0","0.00","0.00"
"22:39:58","73.9","68.8","84","30.12","136","0","0","0.00","0.00"
"22:44:56","73.6","68.8","85","30.12","136","0","0","0.00","0.00"
"22:49:57","73.3","68.5","85","30.11","136","0","0","0.00","0.00"
"22:54:58","73.1","68.7","85.9","30.11","136","0","0","0.00","0.00"
"22:59:56","72.9","68.5","86","30.11","136","0","0","0.00","0.00"
"23:04:59","72.7","68.5","86.7","30.11","136","0","0","0.00","0.00"
"23:09:58","72.5","68.4","87","30.11","136","0","0","0.00","0.00"
"23:14:57","72.3","68.4","87.3","30.11","136","0","0","0.00","0.00"
"23:19:59","72.2","68.4","88","30.11","136","0","0","0.00","0.00"
"23:24:56","72.2","68.4","88","30.11","136","0","0","0.00","0.00"
"23:29:56","72.3","68.5","88","30.11","136","0","0","0.00","0.00"
"23:34:57","72.3","68.5","88","30.11","136","0","0","0.00","0.00"
"23:39:56","72.3","68.5","88","30.11","136","0","0","0.00","0.00"
"23:44:58","72.1","68.3","88.2","30.11","136","0","0","0.00","0.00"
"23:49:59","71.9","68.5","89","30.11","136","0","0","0.00","0.00"
